Tracking 29892 objects as of 21-Nov-2024
HD Live streaming from Space Station
objects crossing your sky now

FENGYUN 1C DEB

Track FENGYUN 1C DEB now!
10-day predictions


NORAD ID: 30381
Int'l Code: 1999-025ACU
Perigee: 823.2 km
Apogee: 905.1 km
Inclination: 98.8 °
Period: 102.1 minutes
Semi major axis: 7235 km
RCS: 0.0084 m2 (small)
Launch date: May 10, 1999
Source: People's Republic of China (PRC)
Launch site: Taiyaun Space Center, China (TSC)

Note: This is SATELLITE DEBRIS
Your satellite tracking list
Your tracking list is empty




NASA's NSSDC Master Catalog

Two Line Element Set (TLE):
1 30381U 99025ACU 24321.06282423  .00004279  00000-0  23825-2 0  9993
2 30381  98.8475 356.0683 0056565 104.4269 256.3188 14.10691332866397
Source of the keplerian elements: AFSPC